Stations météo

Publicité
Ploumanach, France (7117): Température de l'air & dewpoint: 13.09.2020 16:00:00 - 19.09.2020 16:00:00 (CEST)Ploumanach, France (7117): Vitesse du vent & gusts: 13.09.2020 16:00:00 - 19.09.2020 16:00:00 (CEST)Ploumanach, France (7117): Direction du vent: 13.09.2020 16:00:00 - 19.09.2020 16:00:00 (CEST)Ploumanach, France (7117): reduced air pressure: 13.09.2020 16:00:00 - 19.09.2020 16:00:00 (CEST)Ploumanach, France (7117): visibility: 13.09.2020 16:00:00 - 19.09.2020 16:00:00 (CEST)Ploumanach, France (7117): Quantités de précipitations: 13.09.2020 16:00:00 - 19.09.2020 16:00:00 (CEST)
Date & Time tt [°C] td [°C] ff [km/h] ff [knt] fx [km/h] fx [knt] dd ppp [hPa] vv [km] rr [mm]
19.09.2020 16:00:00 17,1 16,0 18 10 29 16 NNE 1012,4 - 0,0
19.09.2020 15:00:00 17,2 16,2 21 12 31 17 NE 1012,6 - 0,0
19.09.2020 14:00:00 16,7 16,1 24 13 35 19 NE 1013,0 6 0,0
19.09.2020 13:00:00 16,5 16,2 25 14 41 22 NE 1013,2 - 0,2
19.09.2020 12:00:00 16,6 16,6 27 14 34 19 NE 1013,2 - 0,2
19.09.2020 11:00:00 17,2 17,2 4 2 23 13 NNW 1012,9 0,1 1,1
19.09.2020 10:00:00 17,6 17,6 15 8 21 11 NE 1013,2 - 0,8
19.09.2020 09:00:00 17,7 17,5 9 5 19 10 ENE 1013,1 - 2,0
19.09.2020 08:00:00 17,8 17,6 10 6 18 10 ENE 1013,1 3,0 2,6
19.09.2020 07:00:00 17,8 17,5 12 6 21 12 E 1012,9 - 0,2
19.09.2020 06:00:00 17,6 17,1 9 5 14 8 ENE 1012,7 - 0,0
19.09.2020 05:00:00 17,5 17,0 12 6 16 9 E 1012,9 - 0,0
19.09.2020 04:00:00 17,6 17,1 12 7 21 11 E 1013,2 - 0,0
19.09.2020 03:00:00 17,7 17,1 14 7 19 11 E 1013,7 - 0,0
19.09.2020 02:00:00 17,7 16,6 11 6 24 13 ENE 1013,8 - 0,0
19.09.2020 01:00:00 17,8 16,5 16 8 30 16 E 1013,9 - 0,0
19.09.2020 00:00:00 17,9 16,4 21 11 37 20 E 1014,2 - 0,0
18.09.2020 23:00:00 17,9 16,1 23 12 40 22 E 1014,0 - 0,0
18.09.2020 22:00:00 17,9 16,1 23 12 43 23 E 1014,4 - 0,0
18.09.2020 21:00:00 18,1 15,9 24 13 43 23 E 1014,3 - 0,0
18.09.2020 20:00:00 18,3 15,7 21 12 35 19 E 1014,2 6 0,0
18.09.2020 19:00:00 18,6 16,0 20 11 40 22 E 1014,2 - 0,0
18.09.2020 18:00:00 19,0 15,3 28 15 48 26 E 1013,9 - 0,0
18.09.2020 17:00:00 19,1 15,0 32 17 - - E 1013,6 10 -
18.09.2020 16:00:00 - - - - - - - - - -
18.09.2020 15:00:00 20,6 14,5 34 18 59 32 ENE 1013,9 - 0,0
18.09.2020 14:00:00 19,5 14,7 31 17 58 32 ENE 1014,2 10 0,0
18.09.2020 13:00:00 19,0 14,7 33 18 56 30 ENE 1014,8 - 0,0
18.09.2020 12:00:00 18,8 14,1 29 16 56 31 ENE 1015,7 - 0,0
18.09.2020 11:00:00 18,2 13,9 34 18 55 30 E 1015,8 10 0,0
18.09.2020 10:00:00 17,8 14,3 29 15 50 27 ENE 1015,5 - 0,0
18.09.2020 09:00:00 17,2 13,9 30 16 53 28 ENE 1016,0 - 0,0
18.09.2020 08:00:00 16,7 14,0 25 14 50 27 ENE 1016,3 15 0,0
18.09.2020 07:00:00 16,9 12,8 28 15 49 27 ENE 1016,4 - 0,0
18.09.2020 06:00:00 17,0 12,9 26 14 52 28 ENE 1016,9 - 0,0
18.09.2020 05:00:00 17,1 12,4 30 16 51 28 E 1017,2 - 0,0
18.09.2020 04:00:00 17,0 13,1 31 17 55 30 E 1017,9 - 0,0
18.09.2020 03:00:00 16,9 14,4 31 17 53 29 E 1018,7 - 0,0
18.09.2020 02:00:00 16,8 14,8 30 16 56 31 E 1019,0 - 0,0
18.09.2020 01:00:00 17,0 14,8 33 18 57 31 ENE 1019,3 - 0,0
18.09.2020 00:00:00 17,1 14,6 34 19 54 29 E 1019,9 - 0,0
17.09.2020 23:00:00 17,3 14,4 31 17 53 29 E 1020,0 - 0,0
17.09.2020 22:00:00 17,5 14,4 30 16 51 28 ENE 1020,0 - 0,0
17.09.2020 21:00:00 17,7 14,6 24 13 45 24 ENE 1019,9 - 0,0
17.09.2020 20:00:00 17,9 14,0 28 15 53 29 ENE 1019,8 15 0,0
17.09.2020 19:00:00 18,6 14,7 35 19 55 30 ENE 1019,9 - 0,0
17.09.2020 18:00:00 19,4 15,3 31 17 58 31 ENE 1020,0 - 0,0
17.09.2020 17:00:00 19,9 15,5 31 17 51 28 ENE 1020,3 7 0,0
17.09.2020 16:00:00 20,2 16,2 32 17 52 28 ENE 1020,6 - 0,0
17.09.2020 15:00:00 20,7 15,7 32 17 56 30 ENE 1021,0 - 0,0
17.09.2020 14:00:00 20,7 16,1 31 17 56 31 ENE 1021,5 6 0,0
17.09.2020 13:00:00 19,4 16,1 34 18 59 32 ENE 1021,7 - 0,0
17.09.2020 12:00:00 18,5 15,9 30 16 58 31 ENE 1022,3 - 0,0
17.09.2020 11:00:00 18,1 15,9 34 18 61 33 ENE 1022,4 6 0,0
17.09.2020 10:00:00 18,1 16,3 32 17 59 32 ENE 1022,4 - 0,0
17.09.2020 09:00:00 18,1 16,4 32 17 57 31 ENE 1022,4 - 0,0
17.09.2020 08:00:00 18,1 16,6 30 16 51 28 ENE 1022,0 - 0,0
17.09.2020 07:00:00 18,0 16,3 26 14 49 26 ENE 1022,3 - 0,0
17.09.2020 06:00:00 18,1 16,4 28 15 50 27 E 1022,2 - 0,0
17.09.2020 05:00:00 18,1 16,6 26 14 53 28 ENE 1022,6 - 0,0
17.09.2020 04:00:00 18,0 16,2 26 14 47 25 ENE 1023,1 - 0,0
17.09.2020 03:00:00 17,9 16,2 28 15 48 26 E 1023,6 - 0,0
17.09.2020 02:00:00 17,7 16,6 22 12 30 16 ENE 1023,5 - 0,0
17.09.2020 01:00:00 17,1 16,5 14 7 20 11 ENE 1023,7 - 0,2
17.09.2020 00:00:00 17,2 17,0 10 5 13 7 ENE 1023,6 - 0,0
16.09.2020 23:00:00 16,8 16,6 8 4 20 11 ENE 1023,6 - 0,0
16.09.2020 22:00:00 16,7 16,5 8 4 10 6 NE 1023,5 - 0,0
16.09.2020 21:00:00 16,5 16,2 4 2 13 7 ENE 1022,9 - 0,0
16.09.2020 20:00:00 17,0 16,4 11 6 18 10 NE 1022,8 1,5 0,0
16.09.2020 19:00:00 16,7 15,9 15 8 21 11 NNE 1022,9 - 0,0
16.09.2020 18:00:00 17,5 16,4 9 5 16 9 NNE 1022,7 - 0,0
16.09.2020 17:00:00 17,9 16,6 9 5 14 8 NNE 1022,8 0,1 0,0
16.09.2020 16:00:00 18,4 16,7 7 4 13 7 NNE 1023,1 - 0,0
16.09.2020 15:00:00 17,9 16,2 6 3 11 6 NNE 1023,4 - 0,0
16.09.2020 14:00:00 17,6 15,6 5 3 14 7 NNE 1023,5 5 0,0
16.09.2020 13:00:00 17,5 16,4 5 3 12 6 N 1023,4 - 0,0
16.09.2020 12:00:00 16,5 16,3 6 4 10 5 WNW 1023,6 - 0,0
16.09.2020 11:00:00 16,4 16,4 3 1 9 5 NW 1023,3 0,1 0,0
16.09.2020 10:00:00 16,1 16,1 4 2 7 4 N 1022,9 - 0,0
16.09.2020 09:00:00 15,6 15,6 4 2 13 7 NW 1022,8 - 0,0
16.09.2020 08:00:00 15,5 15,5 4 2 13 7 NW 1022,5 0,1 0,0
16.09.2020 07:00:00 15,6 15,6 6 4 15 8 W 1022,2 - 0,0
16.09.2020 06:00:00 15,6 15,6 9 5 15 8 WSW 1022,1 - 0,0
16.09.2020 05:00:00 15,7 15,7 6 4 13 7 W 1022,1 - 0,2
16.09.2020 04:00:00 15,6 15,6 10 5 17 9 W 1022,2 - 0,0
16.09.2020 03:00:00 15,6 15,6 6 4 12 6 W 1021,9 - 0,0
16.09.2020 02:00:00 15,5 15,5 4 2 11 6 NW 1021,9 - 0,0
16.09.2020 01:00:00 15,7 15,7 6 3 10 6 SW 1022,2 - 0,0
16.09.2020 00:00:00 15,8 15,8 4 2 9 5 SW 1021,8 - 0,0
15.09.2020 23:00:00 16,1 16,1 4 2 9 5 WNW 1021,9 - 0,0
15.09.2020 22:00:00 16,3 16,1 6 3 12 6 W 1021,7 - 0,0
15.09.2020 21:00:00 16,5 16,3 8 5 13 7 W 1021,4 - 0,0
15.09.2020 20:00:00 17,0 16,7 9 5 16 9 W 1021,0 0,1 0,0
15.09.2020 19:00:00 17,5 16,7 11 6 16 9 W 1020,9 - 0,0
15.09.2020 18:00:00 17,8 16,8 11 6 21 11 W 1020,7 - 0,0
15.09.2020 17:00:00 18,9 17,2 14 8 24 13 W 1020,4 2,0 0,0
15.09.2020 16:00:00 21,3 16,9 13 7 25 14 W 1020,1 - 0,0
15.09.2020 15:00:00 21,3 17,1 15 8 21 11 W 1020,0 - 0,0
15.09.2020 14:00:00 21,4 17,4 8 4 18 10 W 1020,0 6 0,0
15.09.2020 13:00:00 22,3 16,8 8 4 14 8 W 1020,0 - 0,0
15.09.2020 12:00:00 21,6 15,7 6 3 11 6 W 1020,0 - 0,0
15.09.2020 11:00:00 19,2 16,2 4 2 16 9 NW 1019,4 18 0,0
15.09.2020 10:00:00 18,7 16,5 11 6 16 9 WSW 1019,5 - 0,0
15.09.2020 09:00:00 17,9 16,2 11 6 25 13 SW 1019,4 - 0,0
15.09.2020 08:00:00 17,3 15,8 19 10 33 18 WSW 1018,7 18 0,0
15.09.2020 07:00:00 17,3 14,9 20 11 33 18 WSW 1018,4 - 0,0
15.09.2020 06:00:00 18,0 12,7 11 6 14 8 SW 1017,9 - 0,0
15.09.2020 05:00:00 19,0 12,3 2 1 11 6 W 1017,2 - 0,0
15.09.2020 04:00:00 19,6 11,6 3 2 12 6 N 1017,3 - 0,0
15.09.2020 03:00:00 19,9 11,6 5 3 19 10 SW 1017,4 - 0,0
15.09.2020 02:00:00 18,7 12,9 16 9 25 14 SW 1017,6 - 0,0
15.09.2020 01:00:00 17,9 13,4 19 11 26 14 SW 1017,9 - 0,0
15.09.2020 00:00:00 18,0 13,9 19 11 30 16 SW 1017,8 - 0,0
14.09.2020 23:00:00 18,0 14,9 21 11 29 16 SW 1017,8 - 0,0
14.09.2020 22:00:00 18,5 15,7 20 11 27 15 SW 1017,3 - 0,0
14.09.2020 21:00:00 19,9 17,3 13 7 17 9 SW 1016,8 - 0,0
14.09.2020 20:00:00 20,5 16,5 2 1 10 6 S 1016,4 - 0,0
14.09.2020 19:00:00 20,5 16,5 9 5 11 6 E 1016,1 - 0,0
14.09.2020 18:00:00 21,2 16,8 9 5 17 9 E 1016,1 - 0,0
14.09.2020 17:00:00 22,7 16,5 11 6 21 11 ENE 1016,2 30 0,0
14.09.2020 16:00:00 22,2 16,0 12 6 22 12 ENE 1016,5 - 0,0
14.09.2020 15:00:00 21,9 16,0 13 7 20 11 E 1017,2 - 0,0
14.09.2020 14:00:00 21,9 16,0 11 6 16 9 ENE 1017,8 30 0,0
14.09.2020 13:00:00 22,1 16,6 10 5 16 9 E 1018,1 - 0,0
14.09.2020 12:00:00 22,3 13,4 9 5 13 7 E 1018,5 - 0,0
14.09.2020 11:00:00 21,2 13,6 10 5 14 7 E 1018,7 15 0,0
14.09.2020 10:00:00 19,6 12,4 10 6 18 10 E 1018,8 - 0,0
14.09.2020 09:00:00 17,9 11,7 13 7 22 12 ESE 1018,9 - 0,0
14.09.2020 08:00:00 16,1 12,3 14 7 18 10 E 1018,9 15 0,0
14.09.2020 07:00:00 17,4 11,9 11 6 22 12 E 1019,0 - 0,0
14.09.2020 06:00:00 17,5 13,0 13 7 23 12 ESE 1019,2 - 0,0
14.09.2020 05:00:00 16,3 15,0 10 5 14 7 E 1019,7 - 0,0
14.09.2020 04:00:00 17,1 15,3 11 6 16 9 ESE 1020,2 - 0,0
14.09.2020 03:00:00 17,1 15,1 7 4 14 8 E 1020,8 - 0,0
14.09.2020 02:00:00 18,3 14,6 5 3 23 12 ESE 1021,1 - 0,0
14.09.2020 01:00:00 19,2 14,5 16 8 22 12 SSE 1021,2 - 0,0
14.09.2020 00:00:00 18,8 14,5 9 5 18 10 ESE 1021,6 - 0,0
13.09.2020 23:00:00 18,5 14,2 11 6 22 12 E 1021,8 - 0,0
13.09.2020 22:00:00 20,2 13,9 16 9 26 14 SE 1021,8 - 0,0
13.09.2020 21:00:00 19,9 14,0 10 5 17 9 ESE 1021,5 - 0,0
13.09.2020 20:00:00 20,0 15,0 11 6 18 10 E 1021,3 - 0,0
13.09.2020 19:00:00 20,7 16,5 8 4 21 11 ENE 1021,4 - 0,0
13.09.2020 18:00:00 21,4 16,8 8 4 28 15 ENE 1021,5 - 0,0
13.09.2020 17:00:00 20,8 16,4 16 9 29 16 ENE 1021,8 30 0,0
13.09.2020 16:00:00 20,8 16,2 19 10 29 16 NE 1022,3 - 0,0

tt = Température de l'air
td = dewpoint
ff = Vitesse du vent
fx = gusts
dd = Direction du vent
ppp = reduced air pressure
vv = visibility
rr = Quantités de précipitations

stations d'obs. à proximité